Weather History for Three Rivers, MI

Change the Weather History Date:

Friday, March 14, 2014

  Actual Average Record
Temperature  
Mean Temperature 38 °F -  
Max Temperature 51 °F 43 °F 79 °F (2012)
Min Temperature 26 °F 26 °F 1 °F (1993)
Degree Days  
Heating Degree Days 26    
Moisture  
Dew Point 29 °F    
Average Humidity 62    
Maximum Humidity 78    
Minimum Humidity 46    
Precipitation  
Precipitation 0.00 in - - ()
Sea Level Pressure  
Sea Level Pressure 29.72 in    
Wind  
Wind Speed 14 mph (SW)    
Max Wind Speed 23 mph    
Max Gust Speed 36 mph    
Visibility 10 miles    
Events      
Averages and records for this station are not official NWS values.
T = Trace of Precipitation, MM = Missing Value Source: NWS Daily Summary

Daily Weather History Graph

Daily Weather History Graph

Search for Another Location

Airport:

Trip Planner

Search our weather history database for the weather conditions in past years. The results will help you decide how hot, cold, wet, or windy it might be!

Date:

Astronomy

Mar. 14, 2014 Rise Set
Actual Time 7:55 AM EDT 7:47 PM EDT
Civil Twilight 7:28 AM EDT 8:15 PM EDT
Nautical Twilight 6:55 AM EDT 8:48 PM EDT
Astronomical Twilight 6:22 AM EDT 9:20 PM EDT
Moon 6:08 PM EDT (3/14) 6:37 AM EDT (3/14)
Length of Visible Light 12h 47m
Length of Day
11h 51m
Waxing Gibbous, 96% of the Moon is Illuminated
Mar 14
Waxing Gibbous
Mar 16
Full
Mar 23
Last Quarter
Mar 30
New
Apr 7
First Quarter

Hourly Weather History & Observations

Time (EDT) Temp. Windchill Dew Point Humidity Pressure Visibility Wind Dir Wind Speed Gust Speed Precip Events Conditions
12:15 AM 26.1 °F 18.4 °F 20.1 °F 78% 29.91 in 10.0 mi South 6.9 mph - N/A   Clear
12:35 AM 26.2 °F 17.8 °F 20.3 °F 78% 29.90 in 10.0 mi South 8.1 mph - N/A   Clear
12:55 AM 27.1 °F 18.9 °F 21.2 °F 78% 29.89 in 10.0 mi SSW 8.1 mph - N/A   Clear
1:15 AM 28.2 °F 19.5 °F 22.1 °F 78% 29.88 in 10.0 mi SSW 9.2 mph - N/A   Clear
1:35 AM 29.3 °F 20.8 °F 22.8 °F 77% 29.88 in 10.0 mi SSW 9.2 mph - N/A   Clear
1:55 AM 30.2 °F 21.3 °F 23.5 °F 76% 29.87 in 10.0 mi SSW 10.4 mph - N/A   Clear
2:15 AM 31.8 °F 22.3 °F 24.6 °F 75% 29.87 in 10.0 mi SW 12.7 mph - N/A   Clear
2:35 AM 32.9 °F 22.8 °F 25.3 °F 74% 29.86 in 10.0 mi SW 15.0 mph - N/A   Clear
2:55 AM 33.3 °F 23.2 °F 25.7 °F 74% 29.86 in 10.0 mi SSW 15.0 mph - N/A   Clear
3:15 AM 33.8 °F 23.9 °F 25.7 °F 72% 29.85 in 10.0 mi SSW 15.0 mph - N/A   Clear
3:34 AM 34.0 °F 24.2 °F 25.9 °F 72% 29.84 in 10.0 mi SSW 15.0 mph - N/A   Clear
3:55 AM 34.2 °F 24.0 °F 26.1 °F 72% 29.84 in 10.0 mi SSW 16.1 mph - N/A   Clear
4:15 AM 34.3 °F 25.0 °F 26.1 °F 72% 29.83 in 10.0 mi SSW 13.8 mph 20.7 mph N/A   Clear
4:34 AM 34.3 °F 25.5 °F 26.1 °F 72% 29.82 in 10.0 mi SSW 12.7 mph - N/A   Clear
4:55 AM 34.0 °F 26.0 °F 26.1 °F 73% 29.81 in 10.0 mi SSW 10.4 mph - N/A   Clear
5:15 AM 34.3 °F 26.5 °F 26.2 °F 72% 29.80 in 10.0 mi SSW 10.4 mph - N/A   Clear
5:34 AM 35.1 °F 25.9 °F 26.6 °F 71% 29.79 in 10.0 mi SSW 13.8 mph - N/A   Clear
5:55 AM 36.1 °F 26.9 °F 27.0 °F 69% 29.77 in 10.0 mi SSW 15.0 mph - N/A   Clear
6:15 AM 36.5 °F 27.0 °F 27.1 °F 69% 29.76 in 10.0 mi SSW 16.1 mph - N/A   Clear
6:35 AM 36.5 °F 27.0 °F 27.1 °F 69% 29.75 in 10.0 mi SSW 16.1 mph 19.6 mph N/A   Clear
6:55 AM 36.3 °F 27.5 °F 27.1 °F 69% 29.75 in 10.0 mi SSW 13.8 mph - N/A   Clear
7:15 AM 36.5 °F 26.7 °F 27.3 °F 69% 29.74 in 10.0 mi SSW 17.3 mph 20.7 mph N/A   Clear
7:35 AM 37.0 °F 28.1 °F 27.5 °F 68% 29.73 in 10.0 mi SSW 15.0 mph - N/A   Clear
7:55 AM 37.4 °F 27.8 °F 28.0 °F 69% 29.73 in 10.0 mi SSW 17.3 mph - N/A   Clear
8:15 AM 37.9 °F 28.2 °F 28.0 °F 68% 29.72 in 10.0 mi SSW 18.4 mph 26.5 mph N/A   Clear
8:35 AM 37.8 °F 28.3 °F 28.2 °F 68% 29.72 in 10.0 mi SSW 17.3 mph - N/A   Clear
8:55 AM 38.3 °F 29.3 °F 28.4 °F 68% 29.72 in 10.0 mi SSW 16.1 mph 21.9 mph N/A   Clear
9:15 AM 39.2 °F 30.2 °F 28.9 °F 67% 29.71 in 10.0 mi SSW 17.3 mph 21.9 mph N/A   Clear
9:35 AM 40.5 °F 30.9 °F 29.1 °F 64% 29.70 in 10.0 mi SSW 20.7 mph 25.3 mph N/A   Clear
9:55 AM 41.9 °F 33.7 °F 29.1 °F 61% 29.70 in 10.0 mi SSW 17.3 mph 23.0 mph N/A   Clear
10:15 AM 42.6 °F 34.6 °F 29.1 °F 59% 29.70 in 10.0 mi SSW 17.3 mph 24.2 mph N/A   Clear
10:35 AM 42.8 °F 34.8 °F 29.1 °F 58% 29.69 in 10.0 mi SSW 17.3 mph 23.0 mph N/A   Clear
10:55 AM 43.0 °F 35.1 °F 29.3 °F 59% 29.70 in 10.0 mi SSW 17.3 mph 23.0 mph N/A   Clear
11:15 AM 43.3 °F 35.2 °F 29.3 °F 58% 29.68 in 10.0 mi SSW 18.4 mph 26.5 mph N/A   Clear
11:34 AM 43.9 °F 35.7 °F 29.7 °F 57% 29.67 in 10.0 mi SSW 19.6 mph 24.2 mph N/A   Clear
11:55 AM 44.6 °F 36.6 °F 29.7 °F 56% 29.65 in 10.0 mi SSW 19.6 mph 29.9 mph N/A   Clear
12:15 PM 45.3 °F 37.8 °F 29.3 °F 54% 29.64 in 10.0 mi SSW 18.4 mph 31.1 mph N/A   Clear
12:34 PM 45.5 °F 37.6 °F 29.3 °F 53% 29.64 in 10.0 mi SSW 20.7 mph 27.6 mph N/A   Clear
12:55 PM 45.5 °F 37.3 °F 29.7 °F 54% 29.63 in 10.0 mi SW 21.9 mph 32.2 mph N/A   Scattered Clouds
1:15 PM 45.3 °F 37.6 °F 29.8 °F 55% 29.62 in 10.0 mi SSW 19.6 mph 25.3 mph N/A   Scattered Clouds
1:35 PM 46.0 °F 39.0 °F 30.2 °F 54% 29.62 in 10.0 mi SSW 17.3 mph 26.5 mph N/A   Clear
1:55 PM 46.4 °F 39.0 °F 30.2 °F 53% 29.60 in 10.0 mi SSW 19.6 mph 28.8 mph N/A   Clear
2:15 PM 47.1 °F - 30.2 °F 52% 29.60 in 10.0 mi SW 19.6 mph 29.9 mph N/A   Clear
2:35 PM 48.0 °F - 30.2 °F 50% 29.59 in 10.0 mi SW 20.7 mph 29.9 mph N/A   Clear
2:55 PM 49.5 °F - 30.4 °F 48% 29.59 in 10.0 mi SW 16.1 mph 25.3 mph N/A   Clear
3:14 PM 50.2 °F - 30.2 °F 46% 29.58 in 10.0 mi WSW 12.7 mph 26.5 mph N/A   Clear
3:35 PM 50.9 °F - 30.6 °F 46% 29.58 in 10.0 mi SW 15.0 mph 31.1 mph N/A   Clear
3:55 PM 51.1 °F - 30.9 °F 46% 29.58 in 10.0 mi WSW 19.6 mph 28.8 mph N/A   Clear
4:14 PM 50.7 °F - 32.0 °F 49% 29.59 in 10.0 mi WSW 19.6 mph 35.7 mph N/A   Clear
4:35 PM 50.5 °F - 32.2 °F 49% 29.59 in 10.0 mi WSW 23.0 mph 33.4 mph N/A   Scattered Clouds
4:55 PM 50.5 °F - 32.4 °F 50% 29.59 in 10.0 mi WSW 16.1 mph 32.2 mph N/A   Scattered Clouds
5:15 PM 50.2 °F - 32.7 °F 51% 29.59 in 10.0 mi WSW 18.4 mph 24.2 mph N/A   Scattered Clouds
5:35 PM 50.0 °F - 32.5 °F 51% 29.60 in 10.0 mi WSW 10.4 mph 21.9 mph N/A   Mostly Cloudy
5:55 PM 50.2 °F - 32.9 °F 52% 29.60 in 10.0 mi WSW 12.7 mph 17.3 mph N/A   Scattered Clouds
6:15 PM 50.0 °F - 32.7 °F 52% 29.62 in 10.0 mi WSW 8.1 mph 19.6 mph N/A   Clear
6:35 PM 50.0 °F - 32.4 °F 51% 29.62 in 10.0 mi WSW 11.5 mph 17.3 mph N/A   Clear
6:54 PM 49.5 °F - 31.5 °F 50% 29.64 in 10.0 mi West 20.7 mph 28.8 mph N/A   Clear
7:15 PM 48.4 °F - 30.2 °F 49% 29.66 in 10.0 mi West 16.1 mph 19.6 mph N/A   Clear
7:35 PM 47.5 °F - 30.0 °F 51% 29.67 in 10.0 mi West 17.3 mph 25.3 mph N/A   Clear
7:54 PM 45.0 °F 37.4 °F 29.7 °F 55% 29.69 in 10.0 mi West 18.4 mph 28.8 mph N/A   Scattered Clouds
8:15 PM 43.9 °F 35.4 °F 28.4 °F 55% 29.70 in 10.0 mi West 20.7 mph 28.8 mph N/A   Scattered Clouds
8:35 PM 43.0 °F 34.8 °F 28.4 °F 56% 29.72 in 10.0 mi West 18.4 mph 24.2 mph N/A   Scattered Clouds
8:55 PM 41.9 °F 34.3 °F 29.3 °F 61% 29.73 in 10.0 mi West 15.0 mph 20.7 mph N/A   Overcast
9:15 PM 41.5 °F 33.5 °F 29.7 °F 63% 29.75 in 10.0 mi West 16.1 mph 26.5 mph N/A   Overcast
9:35 PM 41.0 °F 32.5 °F 30.2 °F 65% 29.76 in 10.0 mi West 17.3 mph 24.2 mph N/A   Overcast
9:55 PM 40.3 °F 31.3 °F 30.2 °F 67% 29.77 in 10.0 mi West 18.4 mph 29.9 mph N/A   Overcast
10:15 PM 40.1 °F 32.0 °F 30.2 °F 68% 29.77 in 10.0 mi West 15.0 mph 24.2 mph N/A   Overcast
10:34 PM 40.1 °F 31.3 °F 30.2 °F 68% 29.78 in 10.0 mi West 17.3 mph - N/A   Overcast
10:55 PM 39.6 °F 30.6 °F 30.2 °F 69% 29.79 in 10.0 mi West 17.3 mph - N/A   Overcast
11:15 PM 39.6 °F 31.0 °F 30.2 °F 69% 29.79 in 10.0 mi West 16.1 mph - N/A   Overcast
11:34 PM 39.7 °F 30.0 °F 30.0 °F 68% 29.79 in 10.0 mi West 20.7 mph 24.2 mph N/A   Overcast
11:55 PM 39.0 °F 30.3 °F 29.8 °F 70% 29.79 in 10.0 mi West 16.1 mph 20.7 mph N/A   Scattered Clouds